User: anonymous   Login
Location: Unspecified
(29.9680°N, 0.0000°E)
Time: 14:44:02
(UTC+00:00)
Language:

A-11 Canister half - Orbit

View from above orbital plane
View from above orbital plane
View from above satellite
View from above satellite

Ground track
Ground track

The orbit data is extracted from the following two-line orbital elements,

1    53U 60009E   19293.96021574 -.00000051 +00000-0 +34264-3 0  9990
2    53 047.2752 280.6216 0096708 090.2150 270.9721 12.17229888639272
Epoch (UTC): 20 October 2019 23:02:42
Eccentricity: 0.0096708
inclination: 47.2752°
perigee height: 1527 km
apogee height: 1682 km
right ascension of ascending node: 280.6216°
argument of perigee: 90.2150°
revolutions per day: 12.17229888
mean anomaly at epoch: 270.9721°
orbit number at epoch: 63927

The dashed part of the orbit path shows where the satellite is in the earth's shadow,  

DLR